User: anonymous
Location: ActonStarParty
(42.4766°N, 71.4538°W)
Time: 19:46:26
(UTC-04:00)
Language:

ITAMSAT 1 - Orbit

View from above orbital plane
View from above orbital plane
View from above satellite
View from above satellite

Ground track
Ground track

The orbit data is extracted from the following two-line orbital elements,

1 22826U 93061D   14244.78999531  .00000069  00000-0  44020-4 0  5068
2 22826 098.6621 190.6911 0009990 070.0425 290.1832 14.30042738 91867
Epoch (UTC): 01 September 2014 18:57:35
Eccentricity: 0.0009990
inclination: 98.6621°
perigee height: 784 km
apogee height: 799 km
right ascension of ascending node: 190.6911°
argument of perigee: 70.0425°
revolutions per day: 14.30042738
mean anomaly at epoch: 290.1832°
orbit number at epoch: 9186

The dashed part of the orbit path shows where the satellite is in the earth's shadow,  

DLR